Weather History for Perth, WE

Change the Weather History Date:

Friday, January 24, 2014

  Actual Average Record
Temperature  
Mean Temperature 82 °F -  
Max Temperature 90 °F 89 °F 100 °F (1997)
Min Temperature 73 °F 64 °F 55 °F (2009)
Cooling Degree Days 16    
Growing Degree Days 32 (Base 50)    
Moisture  
Dew Point 57 °F    
Average Humidity 43    
Maximum Humidity 61    
Minimum Humidity 22    
Precipitation  
Precipitation 0.00 in 0.02 in - ()
Sea Level Pressure  
Sea Level Pressure 29.89 in    
Wind  
Wind Speed 18 mph ()    
Max Wind Speed 25 mph    
Max Gust Speed 38 mph    
Visibility 9.1 miles    
Events      
Averages and records for this station are not official NWS values.
T = Trace of Precipitation, MM = Missing Value Source: Averaged Metar Reports

Daily Weather History Graph

Daily Weather History Graph

Search for Another Location

Airport:

Trip Planner

Search our weather history database for the weather conditions in past years. The results will help you decide how hot, cold, wet, or windy it might be!

Date:

Astronomy

Jan. 24, 2014 Rise Set
Actual Time 5:33 AM WST 7:22 PM WST
Civil Twilight 5:06 AM WST 7:49 PM WST
Nautical Twilight 4:33 AM WST 8:21 PM WST
Astronomical Twilight 3:59 AM WST 8:56 PM WST
Moon 11:56 PM WST (1/24) 12:40 PM WST (1/24)
Length of Visible Light 14h 42m
Length of Day
13h 49m
Waning Gibbous, 50% of the Moon is Illuminated
Jan 24
Waning Gibbous
Jan 24
Last Quarter
Jan 31
New
Feb 7
First Quarter
Feb 15
Full

Hourly Weather History & Observations

Time (WST) Temp. Heat Index Dew Point Humidity Pressure Visibility Wind Dir Wind Speed Gust Speed Precip Events Conditions
12:00 AM 76 °F - 59 °F 46% 29.90 in 19 mi SE 17.3 mph - -   Partly Cloudy
12:00 AM 77.0 °F - 59.0 °F 54% 29.89 in - SE 21.9 mph - N/A   Clear
12:30 AM 75.2 °F - 59.0 °F 57% 29.89 in 6.2 mi East 16.1 mph - N/A   Scattered Clouds
12:49 AM 75.2 °F - 59.0 °F 57% 29.89 in 6.2 mi ESE 21.9 mph 38.0 mph N/A   Scattered Clouds
1:00 AM 75.2 °F - 59.0 °F 57% 29.89 in 6.2 mi ESE 21.9 mph - N/A   Mostly Cloudy
1:30 AM 75.2 °F - 59.0 °F 57% 29.89 in 6.2 mi ESE 17.3 mph - N/A   Mostly Cloudy
1:54 AM 75.2 °F - 59.0 °F 57% 29.89 in 6.2 mi ESE 19.6 mph 31.1 mph N/A   Mostly Cloudy
2:00 AM 76 °F - 59 °F 46% 29.90 in - ESE 23.0 mph - -  
2:00 AM 75.2 °F - 59.0 °F 57% 29.89 in 6.2 mi ESE 23.0 mph - N/A   Mostly Cloudy
2:08 AM 75.2 °F - 59.0 °F 57% 29.89 in 6.2 mi ESE 21.9 mph 33.4 mph N/A   Mostly Cloudy
2:32 AM 75.2 °F - 59.0 °F 57% 29.89 in 6.2 mi East 19.6 mph 32.2 mph N/A   Mostly Cloudy
3:00 AM 76 °F - 59 °F 45% 29.91 in 19 mi East 17.3 mph - -   Partly Cloudy
3:00 AM 75.2 °F - 59.0 °F 57% 29.89 in 6.2 mi East 17.3 mph - N/A   Mostly Cloudy
3:30 AM 75.2 °F - 59.0 °F 57% 29.89 in 6.2 mi ESE 17.3 mph - N/A   Mostly Cloudy
4:03 AM 75.2 °F - 59.0 °F 57% 29.92 in 6.2 mi East 17.3 mph 28.8 mph N/A   Mostly Cloudy
4:30 AM 75.2 °F - 57.2 °F 53% 29.92 in 6.2 mi ESE 19.6 mph - N/A   Mostly Cloudy
5:00 AM 74 °F - 58 °F 49% 29.93 in - East 13.8 mph - -  
5:00 AM 75.2 °F - 59.0 °F 57% 29.92 in 6.2 mi East 13.8 mph - N/A   Mostly Cloudy
5:30 AM 75.2 °F - 59.0 °F 57% 29.92 in 6.2 mi East 18.4 mph - N/A   Mostly Cloudy
6:00 AM 74 °F - 59 °F 49% 29.95 in 19 mi East 16.1 mph - -   Partly Cloudy
6:00 AM 73.4 °F - 59.0 °F 61% 29.95 in 6.2 mi East 16.1 mph - N/A   Mostly Cloudy
6:23 AM 73.4 °F - 59.0 °F 61% 29.95 in 6.2 mi East 17.3 mph 31.1 mph N/A   Mostly Cloudy
6:30 AM 73.4 °F - 59.0 °F 61% 29.95 in 6.2 mi East 19.6 mph 31.1 mph N/A   Mostly Cloudy
7:00 AM 73.4 °F - 59.0 °F 61% 29.95 in 6.2 mi ESE 21.9 mph - N/A   Mostly Cloudy
7:30 AM 75.2 °F - 59.0 °F 57% 29.98 in 6.2 mi East 16.1 mph - N/A   Mostly Cloudy
8:00 AM 75 °F - 58 °F 46% 29.98 in - East 17.3 mph - -  
8:00 AM 75.2 °F - 59.0 °F 57% 29.98 in 6.2 mi East 17.3 mph - N/A   Mostly Cloudy
8:16 AM 75.2 °F - 59.0 °F 57% 29.98 in 6.2 mi East 17.3 mph 28.8 mph N/A   Mostly Cloudy
8:35 AM 75.2 °F - 59.0 °F 57% 29.98 in 6.2 mi East 19.6 mph 31.1 mph N/A   Mostly Cloudy
9:00 AM 76 °F - 58 °F 44% 29.98 in 19 mi East 19.6 mph - -   Partly Cloudy
9:00 AM 77.0 °F - 59.0 °F 54% 29.98 in 6.2 mi East 19.6 mph - N/A   Mostly Cloudy
9:30 AM 77.0 °F - 59.0 °F 54% 29.95 in 6.2 mi East 19.6 mph - N/A   Mostly Cloudy
10:00 AM 78.8 °F - 59.0 °F 51% 29.95 in 6.2 mi East 23.0 mph - N/A   Mostly Cloudy
10:38 AM 80.6 °F 81.1 °F 59.0 °F 48% 29.95 in 6.2 mi East 20.7 mph 32.2 mph N/A   Mostly Cloudy
11:00 AM 81 °F - 57 °F 34% 29.95 in - East 23.0 mph - -  
11:00 AM 80.6 °F 80.8 °F 57.2 °F 45% 29.95 in 6.2 mi East 23.0 mph - N/A   Mostly Cloudy
11:30 AM 82.4 °F 82.0 °F 57.2 °F 42% 29.92 in - East 23.0 mph - N/A   Clear
11:39 AM 82.4 °F 82.0 °F 57.2 °F 42% 29.92 in - East 23.0 mph 34.5 mph N/A   Unknown
11:59 AM 84.2 °F 83.5 °F 57.2 °F 40% 29.92 in - ENE 21.9 mph - N/A   Clear
12:00 PM 85 °F - 57 °F 28% 29.93 in 19 mi East 21.9 mph - -   Partly Cloudy
12:00 PM 84.2 °F 83.5 °F 57.2 °F 40% 29.92 in - ENE 21.9 mph - N/A   Clear
12:06 PM 86.0 °F 84.9 °F 57.2 °F 37% 29.92 in - ENE 24.2 mph 35.7 mph N/A   Clear
12:38 PM 84.2 °F 83.5 °F 57.2 °F 40% 29.89 in - East 21.9 mph - N/A   Clear
1:00 PM 86.0 °F 84.9 °F 57.2 °F 37% 29.89 in - ENE 25.3 mph - N/A   Clear
1:30 PM 86.0 °F 84.9 °F 57.2 °F 37% 29.89 in - East 24.2 mph - N/A   Clear
1:48 PM 87.8 °F 86.1 °F 55.4 °F 33% 29.86 in - ENE 25.3 mph 36.8 mph N/A   Clear
2:00 PM 89 °F - 55 °F 22% 29.88 in - ENE 24.2 mph - -  
2:00 PM 89.6 °F 87.7 °F 55.4 °F 31% 29.86 in - ENE 24.2 mph - N/A   Clear
2:38 PM 89.6 °F 87.7 °F 55.4 °F 31% 29.86 in - East 21.9 mph 33.4 mph N/A   Clear
2:45 PM 89.6 °F 87.7 °F 55.4 °F 31% 29.86 in - ESE 23.0 mph - N/A   Clear
2:52 PM 89.6 °F 87.7 °F 55.4 °F 31% 29.86 in - East 19.6 mph - N/A   Clear
3:00 PM 89 °F - 55 °F 22% 29.86 in 19 mi East 20.7 mph - -   Partly Cloudy
3:03 PM 89.6 °F 87.7 °F 55.4 °F 31% 29.86 in - East 21.9 mph 33.4 mph N/A   Clear
3:33 PM 87.8 °F 86.1 °F 55.4 °F 33% 29.86 in - East 24.2 mph 35.7 mph N/A   Clear
4:00 PM 89.6 °F 88.1 °F 57.2 °F 33% 29.83 in - East 23.0 mph 35.7 mph N/A   Clear
4:30 PM 87.8 °F 86.1 °F 55.4 °F 33% 29.83 in - East 25.3 mph - N/A   Clear
4:46 PM 89.6 °F 87.7 °F 55.4 °F 31% 29.83 in - ENE 19.6 mph - N/A   Clear
4:52 PM 87.8 °F 86.1 °F 55.4 °F 33% 29.83 in - East 18.4 mph 29.9 mph N/A   Clear
5:00 PM 89 °F - 55 °F 22% 29.84 in - East 21.9 mph - -  
5:00 PM 89.6 °F 87.7 °F 55.4 °F 31% 29.83 in - East 21.9 mph - N/A   Clear
5:30 PM 89.6 °F 87.7 °F 55.4 °F 31% 29.83 in - East 21.9 mph - N/A   Clear
6:00 PM 88 °F - 56 °F 23% 29.84 in 19 mi East 23.0 mph - -   Partly Cloudy
6:00 PM 87.8 °F 86.1 °F 55.4 °F 33% 29.83 in - East 23.0 mph - N/A   Clear
6:30 PM 87.8 °F 86.1 °F 55.4 °F 33% 29.83 in - East 21.9 mph 33.4 mph N/A   Clear
7:00 PM 86.0 °F 84.5 °F 55.4 °F 35% 29.86 in - East 19.6 mph - N/A   Clear
7:30 PM 84.2 °F 83.5 °F 57.2 °F 40% 29.86 in - East 15.0 mph - N/A   Clear
8:00 PM 84 °F - 56 °F 28% 29.86 in - East 15.0 mph - -  
8:00 PM 84.2 °F 83.0 °F 55.4 °F 37% 29.86 in - East 15.0 mph - N/A   Clear
8:30 PM 84.2 °F 83.5 °F 57.2 °F 40% 29.86 in - East 15.0 mph - N/A   Clear
9:00 PM 83 °F - 56 °F 30% 29.87 in 19 mi East 18.4 mph - -   Partly Cloudy
9:00 PM 84.2 °F 83.5 °F 57.2 °F 40% 29.86 in - ENE 18.4 mph 33.4 mph N/A   Clear
9:30 PM 82.4 °F 82.0 °F 57.2 °F 42% 29.86 in - ENE 17.3 mph - N/A   Clear
10:00 PM 82.4 °F 82.0 °F 57.2 °F 42% 29.86 in - East 12.7 mph - N/A   Clear
10:30 PM 82.4 °F 82.0 °F 57.2 °F 42% 29.86 in - ENE 15.0 mph - N/A   Clear
11:00 PM 82 °F - 57 °F 32% 29.86 in - ENE 13.8 mph - -  
11:00 PM 82.4 °F 82.0 °F 57.2 °F 42% 29.86 in - ENE 13.8 mph - N/A   Clear
11:12 PM 80.6 °F 80.8 °F 57.2 °F 45% 29.86 in - ENE 17.3 mph 28.8 mph N/A   Clear
11:30 PM 82.4 °F 82.0 °F 57.2 °F 42% 29.83 in - ENE 18.4 mph - N/A   Clear